Location: Churchill Northern Studies Centre
(58.7378°N, 93.8201°W)
Time: 22:19:32
(UTC-06:00)

Vanguard 2 - All Passes

Search period start: 16 December 2017 00:00
Search period end: 26 December 2017 00:00
Orbit: 553 x 2939 km, 32.9° (Epoch: 16 December)

Date Brightness Start Highest point End Pass type
(mag) Time Alt. Az. Time Alt. Az. Time Alt. Az.
21 Dec - 13:14:46 10° S 13:15:40 10° S 13:16:33 10° SSE daylight
22 Dec - 13:29:35 10° SSW 13:33:10 12° S 13:36:18 10° SSE daylight
23 Dec - 11:40:30 10° S 11:43:00 11° SSE 11:45:20 10° SSE daylight
23 Dec - 13:46:02 10° SSW 13:50:38 13° S 13:54:32 10° SSE daylight
24 Dec - 11:55:02 10° SSW 12:00:28 13° SSE 12:05:08 10° SE daylight
24 Dec - 14:02:59 10° SW 14:08:05 14° S 14:12:18 10° SSE daylight
25 Dec - 12:10:59 10° SSW 12:17:56 16° S 12:23:40 10° SE daylight
25 Dec - 14:20:21 10° SW 14:25:28 14° SSW 14:29:44 10° SSE daylight
